User: anonymous   Login
Location: Unspecified
(0.0000°N, 0.0000°E)
Time: 05:28:46
(UTC+00:00)
Language:

Mublcom - Orbit

View from above orbital plane
View from above orbital plane
View from above satellite
View from above satellite

Ground track
Ground track

The orbit data is extracted from the following two-line orbital elements,

1 25736U 99026B   18343.93345164 +.00000221 +00000-0 +67944-4 0  9992
2 25736 097.7011 023.1940 0006210 140.5058 219.6591 14.49207982031420
Epoch (UTC): 09 December 2018 22:24:10
Eccentricity: 0.0006210
inclination: 97.7011°
perigee height: 724 km
apogee height: 732 km
right ascension of ascending node: 23.1940°
argument of perigee: 140.5058°
revolutions per day: 14.49207982
mean anomaly at epoch: 219.6591°
orbit number at epoch: 3142

The dashed part of the orbit path shows where the satellite is in the earth's shadow,  

DLR